BEIDOU-3 M22 (C44)

Last updated on Mon Oct 20 2025 00:03:25 GMT+0000 (Coordinated Universal Time)

1 44793U 19078A 25291.99038801 -.00000064 00000+0 00000+0 0 9998 2 44793 54.1569 308.3071 0004736 23.7450 336.3123 1.86232173 40156
UTC large
Height (km)
Speed (km/s)
/
Latitude / Longitude
Inclination (degrees)
Orbital Period (minutes)
Azimuth
Elevation
Range (km)
Doppler Factor

Next 0 passes for location: London (51.5072 / 0.1276)

Sorry there are no passes over London.